| time (UTC) | temp F | wind direction | speed MPH | gust MPH | rain 1hr in | rain 24hr in | rain mn in | humidity % | barometer mb |
| 20260504020931 | 48 | 181 | 0.0 | 0.0 | 0.00 | 0.00 | 0.00 | 52 | 1017.2 |
| 20260504020428 | 48 | 181 | 0.0 | 0.0 | 0.00 | 0.00 | 0.00 | 51 | 1017.0 |
| 20260504015925 | 48 | 181 | 0.0 | 0.0 | 0.00 | 0.00 | 0.00 | 51 | 1016.9 |
| 20260504015421 | 48 | 181 | 0.0 | 0.0 | 0.00 | 0.00 | 0.00 | 52 | 1016.7 |
| 20260504014917 | 49 | 181 | 0.0 | 0.0 | 0.00 | 0.00 | 0.00 | 51 | 1016.7 |
| 20260504014413 | 49 | 181 | 0.0 | 0.0 | 0.00 | 0.00 | 0.00 | 51 | 1016.9 |
| 20260504013910 | 48 | 181 | 0.0 | 0.0 | 0.00 | 0.00 | 0.00 | 50 | 1016.7 |
| 20260504013408 | 47 | 181 | 0.0 | 0.0 | 0.00 | 0.00 | 0.00 | 52 | 1016.8 |
| 20260504012904 | 48 | 181 | 0.0 | 0.0 | 0.00 | 0.00 | 0.00 | 51 | 1016.8 |
| 20260504012402 | 48 | 176 | 0.0 | 0.0 | 0.00 | 0.00 | 0.00 | 51 | 1016.6 |
| 20260504011859 | 47 | 169 | 0.0 | 0.0 | 0.00 | 0.00 | 0.00 | 53 | 1016.6 |
| 20260504011356 | 47 | 169 | 0.0 | 0.0 | 0.00 | 0.00 | 0.00 | 52 | 1016.5 |
| 20260504010852 | 48 | 169 | 0.0 | 0.0 | 0.00 | 0.00 | 0.00 | 51 | 1016.4 |
| 20260504010348 | 48 | 169 | 0.0 | 0.0 | 0.00 | 0.00 | 0.00 | 51 | 1016.1 |
| 20260504005844 | 49 | 169 | 0.0 | 0.0 | 0.00 | 0.00 | 0.00 | 49 | 1016.4 |
| 20260504005341 | 49 | 169 | 0.0 | 0.0 | 0.00 | 0.00 | 0.00 | 50 | 1016.4 |
| 20260504004839 | 49 | 169 | 0.0 | 0.0 | 0.00 | 0.00 | 0.00 | 49 | 1016.1 |
| 20260504004336 | 50 | 169 | 0.0 | 0.0 | 0.00 | 0.00 | 0.00 | 48 | 1016.3 |
| 20260504003833 | 50 | 169 | 0.0 | 0.0 | 0.00 | 0.00 | 0.00 | 47 | 1016.4 |
| 20260504003330 | 51 | 170 | 0.0 | 0.0 | 0.00 | 0.00 | 0.00 | 46 | 1016.3 |
| 20260504002826 | 51 | 166 | 0.0 | 0.0 | 0.00 | 0.00 | 0.00 | 45 | 1016.1 |
| 20260504002323 | 52 | 173 | 0.0 | 0.0 | 0.00 | 0.00 | 0.00 | 44 | 1016.1 |
| 20260504001821 | 53 | 140 | 0.0 | 0.0 | 0.00 | 0.00 | 0.00 | 46 | 1016.1 |
| 20260504001318 | 53 | 167 | 0.0 | 0.0 | 0.00 | 0.00 | 0.00 | 41 | 1016.1 |
| 20260504000815 | 54 | 155 | 0.0 | 0.0 | 0.00 | 0.00 | 0.00 | 41 | 1015.9 |
| 20260504000312 | 55 | 154 | 0.0 | 0.0 | 0.00 | 0.00 | 0.00 | 40 | 1016.0 |
| 20260503235810 | 57 | 110 | 0.0 | 0.0 | 0.00 | 0.00 | 0.00 | 40 | 1015.9 |
| 20260503235307 | 58 | 198 | 1.0 | 1.0 | 0.00 | 0.00 | 0.00 | 33 | 1016.0 |
| 20260503234804 | 58 | 226 | 1.0 | 1.0 | 0.00 | 0.00 | 0.00 | 32 | 1016.0 |
| 20260503234302 | 59 | 197 | 0.0 | 0.0 | 0.00 | 0.00 | 0.00 | 32 | 1015.8 |
| 20260503233800 | 59 | 193 | 1.0 | 1.0 | 0.00 | 0.00 | 0.00 | 32 | 1016.1 |
| 20260503233255 | 59 | 187 | 1.0 | 1.0 | 0.00 | 0.00 | 0.00 | 32 | 1015.7 |
| 20260503232752 | 59 | 226 | 1.0 | 1.0 | 0.00 | 0.00 | 0.00 | 31 | 1015.8 |
| 20260503232250 | 60 | 237 | 2.0 | 2.0 | 0.00 | 0.00 | 0.00 | 31 | 1015.7 |
| 20260503231747 | 60 | 196 | 0.0 | 1.0 | 0.00 | 0.00 | 0.00 | 31 | 1015.8 |
| 20260503231244 | 60 | 219 | 0.0 | 1.0 | 0.00 | 0.00 | 0.00 | 31 | 1015.7 |
| 20260503230739 | 60 | 168 | 0.0 | 0.0 | 0.00 | 0.00 | 0.00 | 31 | 1015.6 |
| 20260503230237 | 60 | 274 | 2.0 | 2.0 | 0.00 | 0.00 | 0.00 | 30 | 1015.7 |
| 20260503225735 | 60 | 212 | 1.0 | 2.0 | 0.00 | 0.00 | 0.00 | 31 | 1015.7 |
| 20260503225235 | 60 | 189 | 1.0 | 1.0 | 0.00 | 0.00 | 0.00 | 30 | 1015.6 |
| 20260503224732 | 60 | 47 | 1.0 | 2.0 | 0.00 | 0.00 | 0.00 | 30 | 1015.7 |
| 20260503224230 | 61 | 182 | 1.0 | 1.0 | 0.00 | 0.00 | 0.00 | 30 | 1015.7 |
| 20260503223727 | 61 | 189 | 1.0 | 2.0 | 0.00 | 0.00 | 0.00 | 30 | 1015.8 |
| 20260503223225 | 61 | 225 | 2.0 | 2.0 | 0.00 | 0.00 | 0.00 | 28 | 1015.8 |
| 20260503222721 | 61 | 253 | 1.0 | 2.0 | 0.00 | 0.00 | 0.00 | 28 | 1015.9 |
| 20260503222219 | 61 | 182 | 0.0 | 0.0 | 0.00 | 0.00 | 0.00 | 29 | 1015.7 |
| 20260503221717 | 61 | 171 | 0.0 | 1.0 | 0.00 | 0.00 | 0.00 | 29 | 1015.6 |
| 20260503221214 | 62 | 264 | 1.0 | 1.0 | 0.00 | 0.00 | 0.00 | 28 | 1015.7 |
| 20260503220711 | 62 | 280 | 2.0 | 2.0 | 0.00 | 0.00 | 0.00 | 27 | 1015.8 |
| 20260503220208 | 61 | 201 | 3.0 | 3.0 | 0.00 | 0.00 | 0.00 | 30 | 1015.6 |
| 20260503215704 | 62 | 129 | 0.0 | 0.0 | 0.00 | 0.00 | 0.00 | 28 | 1016.0 |
| 20260503215201 | 61 | 225 | 3.0 | 3.0 | 0.00 | 0.00 | 0.00 | 27 | 1015.8 |
| 20260503214700 | 61 | 213 | 0.0 | 2.0 | 0.00 | 0.00 | 0.00 | 31 | 1016.0 |
| 20260503214155 | 62 | 345 | 1.0 | 2.0 | 0.00 | 0.00 | 0.00 | 31 | 1015.8 |
| 20260503213655 | 62 | 257 | 1.0 | 2.0 | 0.00 | 0.00 | 0.00 | 28 | 1015.9 |
| 20260503213151 | 62 | 193 | 2.0 | 3.0 | 0.00 | 0.00 | 0.00 | 28 | 1016.1 |
| 20260503212648 | 62 | 272 | 1.0 | 2.0 | 0.00 | 0.00 | 0.00 | 28 | 1015.8 |
| 20260503212146 | 62 | 195 | 3.0 | 3.0 | 0.00 | 0.00 | 0.00 | 28 | 1016.0 |
| 20260503211643 | 62 | 183 | 2.0 | 2.0 | 0.00 | 0.00 | 0.00 | 29 | 1016.0 |
| 20260503211138 | 62 | 181 | 1.0 | 1.0 | 0.00 | 0.00 | 0.00 | 28 | 1016.0 |
| 20260503210635 | 61 | 301 | 2.0 | 3.0 | 0.00 | 0.00 | 0.00 | 30 | 1015.9 |
| 20260503210132 | 62 | 283 | 3.0 | 3.0 | 0.00 | 0.00 | 0.00 | 33 | 1016.0 |
| 20260503205628 | 62 | 190 | 2.0 | 2.0 | 0.00 | 0.00 | 0.00 | 28 | 1016.1 |
| 20260503205124 | 62 | 284 | 2.0 | 2.0 | 0.00 | 0.00 | 0.00 | 27 | 1016.3 |
| 20260503204621 | 62 | 329 | 1.0 | 2.0 | 0.00 | 0.00 | 0.00 | 29 | 1016.0 |
| 20260503204119 | 61 | 154 | 0.0 | 1.0 | 0.00 | 0.00 | 0.00 | 30 | 1016.1 |
| 20260503203615 | 62 | 170 | 0.0 | 0.0 | 0.00 | 0.00 | 0.00 | 29 | 1016.1 |
| 20260503203113 | 62 | 218 | 3.0 | 5.0 | 0.00 | 0.00 | 0.00 | 28 | 1016.3 |
| 20260503202610 | 61 | 346 | 3.0 | 3.0 | 0.00 | 0.00 | 0.00 | 28 | 1016.3 |
| 20260503202108 | 62 | 170 | 1.0 | 1.0 | 0.00 | 0.00 | 0.00 | 29 | 1016.1 |
| 20260503201606 | 62 | 92 | 0.0 | 1.0 | 0.00 | 0.00 | 0.00 | 29 | 1016.3 |
| 20260503201103 | 62 | 332 | 3.0 | 5.0 | 0.00 | 0.00 | 0.00 | 31 | 1016.5 |
| 20260503200559 | 62 | 131 | 3.0 | 5.0 | 0.00 | 0.00 | 0.00 | 32 | 1016.5 |
| 20260503200056 | 61 | 331 | 1.0 | 1.0 | 0.00 | 0.00 | 0.00 | 34 | 1016.5 |
| 20260503195553 | 60 | 21 | 2.0 | 2.0 | 0.00 | 0.00 | 0.00 | 31 | 1016.7 |
| 20260503195050 | 60 | 126 | 1.0 | 1.0 | 0.00 | 0.00 | 0.00 | 29 | 1016.8 |
| 20260503194547 | 61 | 290 | 1.0 | 1.0 | 0.00 | 0.00 | 0.00 | 31 | 1016.9 |
| 20260503194046 | 60 | 129 | 1.0 | 2.0 | 0.00 | 0.00 | 0.00 | 33 | 1017.0 |
| 20260503193544 | 60 | 303 | 0.0 | 1.0 | 0.00 | 0.00 | 0.00 | 31 | 1017.1 |
| 20260503193044 | 60 | 275 | 6.0 | 7.0 | 0.00 | 0.00 | 0.00 | 35 | 1017.0 |
| 20260503192541 | 60 | 344 | 3.0 | 3.0 | 0.00 | 0.00 | 0.00 | 38 | 1017.0 |
| 20260503192037 | 60 | 169 | 0.0 | 0.0 | 0.00 | 0.00 | 0.00 | 35 | 1017.2 |
| 20260503191534 | 59 | 123 | 0.0 | 0.0 | 0.00 | 0.00 | 0.00 | 32 | 1017.2 |
| 20260503191031 | 60 | 304 | 1.0 | 3.0 | 0.00 | 0.00 | 0.00 | 33 | 1017.4 |
| 20260503190528 | 60 | 226 | 3.0 | 5.0 | 0.00 | 0.00 | 0.00 | 31 | 1017.5 |
| 20260503190025 | 59 | 325 | 2.0 | 2.0 | 0.00 | 0.00 | 0.00 | 38 | 1017.5 |
| 20260503185521 | 59 | 166 | 4.0 | 5.0 | 0.00 | 0.00 | 0.00 | 32 | 1017.5 |
| 20260503185020 | 61 | 235 | 2.0 | 2.0 | 0.00 | 0.00 | 0.00 | 31 | 1017.7 |
| 20260503184517 | 61 | 98 | 1.0 | 1.0 | 0.00 | 0.00 | 0.00 | 33 | 1018.0 |
| 20260503184013 | 61 | 205 | 1.0 | 1.0 | 0.00 | 0.00 | 0.00 | 36 | 1018.0 |
| 20260503183510 | 59 | 332 | 3.0 | 3.0 | 0.00 | 0.00 | 0.00 | 34 | 1017.9 |
| 20260503183007 | 60 | 339 | 3.0 | 5.0 | 0.00 | 0.00 | 0.00 | 38 | 1018.0 |
| 20260503182506 | 60 | 138 | 0.0 | 0.0 | 0.00 | 0.00 | 0.00 | 38 | 1017.9 |
| 20260503182004 | 59 | 309 | 1.0 | 2.0 | 0.00 | 0.00 | 0.00 | 33 | 1018.0 |
| 20260503181500 | 59 | 161 | 1.0 | 2.0 | 0.00 | 0.00 | 0.00 | 36 | 1018.3 |
| 20260503180956 | 59 | 253 | 4.0 | 6.0 | 0.00 | 0.00 | 0.00 | 38 | 1018.0 |
| 20260503180454 | 59 | 53 | 2.0 | 2.0 | 0.00 | 0.00 | 0.00 | 39 | 1018.2 |
| 20260503175951 | 58 | 212 | 2.0 | 2.0 | 0.00 | 0.00 | 0.00 | 36 | 1018.1 |
| 20260503175449 | 59 | 235 | 0.0 | 0.0 | 0.00 | 0.00 | 0.00 | 36 | 1018.2 |
| 20260503174944 | 58 | 89 | 1.0 | 1.0 | 0.00 | 0.00 | 0.00 | 38 | 1018.2 |
| 20260503174443 | 56 | 134 | 2.0 | 2.0 | 0.00 | 0.00 | 0.00 | 34 | 1018.2 |
| 20260503173938 | 57 | 160 | 4.0 | 5.0 | 0.00 | 0.00 | 0.00 | 36 | 1018.3 |
| 20260503173434 | 58 | 221 | 8.0 | 9.0 | 0.00 | 0.00 | 0.00 | 35 | 1018.3 |
| 20260503172931 | 59 | 220 | 1.0 | 2.0 | 0.00 | 0.00 | 0.00 | 38 | 1018.3 |
| 20260503172428 | 58 | 215 | 3.0 | 3.0 | 0.00 | 0.00 | 0.00 | 38 | 1018.5 |
| 20260503171924 | 58 | 323 | 1.0 | 2.0 | 0.00 | 0.00 | 0.00 | 36 | 1018.5 |
| 20260503171421 | 57 | 142 | 1.0 | 1.0 | 0.00 | 0.00 | 0.00 | 38 | 1018.6 |
| 20260503170919 | 57 | 205 | 3.0 | 3.0 | 0.00 | 0.00 | 0.00 | 38 | 1018.6 |
| 20260503170415 | 58 | 125 | 1.0 | 2.0 | 0.00 | 0.00 | 0.00 | 38 | 1018.7 |
| 20260503150807 | 53 | 39 | 5.0 | 6.0 | 0.00 | 0.00 | 0.00 | 41 | 1020.2 |
| 20260503150303 | 52 | 170 | 2.0 | 3.0 | 0.00 | 0.00 | 0.00 | 42 | 1020.0 |
| 20260503140228 | 50 | 182 | 2.0 | 2.0 | 0.00 | 0.00 | 0.00 | 44 | 1020.1 |
| 20260503131157 | 47 | 350 | 2.0 | 3.0 | 0.00 | 0.00 | 0.00 | 48 | 1019.8 |
| 20260503130654 | 48 | 345 | 3.0 | 3.0 | 0.00 | 0.00 | 0.00 | 50 | 1019.7 |
| 20260503130152 | 48 | 338 | 3.0 | 3.0 | 0.00 | 0.00 | 0.00 | 49 | 1020.0 |
| 20260503120117 | 46 | 147 | 0.0 | 0.0 | 0.00 | 0.00 | 0.00 | 57 | 1019.5 |
| 20260503110544 | 40 | 16 | 3.0 | 5.0 | 0.00 | 0.00 | 0.00 | 60 | 1019.0 |
| 20260503090431 | 41 | 185 | 0.0 | 0.0 | 0.00 | 0.00 | 0.00 | 55 | 1017.2 |
| 20260503081358 | 42 | 187 | 0.0 | 1.0 | 0.00 | 0.00 | 0.00 | 58 | 1016.8 |
| 20260503080855 | 42 | 248 | 1.0 | 2.0 | 0.00 | 0.00 | 0.00 | 55 | 1016.8 |
| 20260503080352 | 42 | 272 | 0.0 | 0.0 | 0.00 | 0.00 | 0.00 | 57 | 1016.8 |
| 20260503072828 | 41 | 161 | 0.0 | 0.0 | 0.00 | 0.00 | 0.00 | 63 | 1016.6 |
| 20260503072325 | 41 | 189 | 2.0 | 2.0 | 0.00 | 0.00 | 0.00 | 64 | 1016.6 |
| 20260503071821 | 41 | 174 | 0.0 | 0.0 | 0.00 | 0.00 | 0.00 | 66 | 1016.5 |
| 20260503071319 | 40 | 194 | 1.0 | 2.0 | 0.00 | 0.00 | 0.00 | 66 | 1016.4 |
| 20260503070815 | 40 | 181 | 0.0 | 0.0 | 0.00 | 0.00 | 0.00 | 66 | 1016.4 |
| 20260503070313 | 40 | 135 | 0.0 | 0.0 | 0.00 | 0.00 | 0.00 | 66 | 1016.3 |
| 20260503060238 | 42 | 53 | 0.0 | 0.0 | 0.00 | 0.00 | 0.00 | 59 | 1016.4 |
| 20260503054725 | 41 | 337 | 4.0 | 5.0 | 0.00 | 0.00 | 0.00 | 61 | 1016.1 |
| 20260503054222 | 39 | 114 | 3.0 | 3.0 | 0.00 | 0.00 | 0.00 | 66 | 1016.1 |
| 20260503053720 | 39 | 2 | 0.0 | 0.0 | 0.00 | 0.00 | 0.00 | 65 | 1016.3 |
| 20260503053219 | 39 | 139 | 0.0 | 0.0 | 0.00 | 0.00 | 0.00 | 66 | 1016.4 |
| 20260503052714 | 40 | 137 | 0.0 | 0.0 | 0.00 | 0.00 | 0.00 | 64 | 1016.4 |
| 20260503052211 | 40 | 177 | 0.0 | 0.0 | 0.00 | 0.00 | 0.00 | 64 | 1016.5 |
| 20260503051706 | 40 | 177 | 0.0 | 0.0 | 0.00 | 0.00 | 0.00 | 65 | 1016.3 |
| 20260503051204 | 40 | 185 | 0.0 | 0.0 | 0.00 | 0.00 | 0.00 | 65 | 1016.1 |
| 20260503050701 | 40 | 167 | 0.0 | 0.0 | 0.00 | 0.00 | 0.00 | 65 | 1016.1 |
| 20260503050158 | 40 | 177 | 0.0 | 0.0 | 0.00 | 0.00 | 0.00 | 65 | 1016.3 |
| 20260503045655 | 40 | 179 | 0.0 | 0.0 | 0.00 | 0.00 | 0.00 | 64 | 1016.1 |
| 20260503045153 | 41 | 144 | 0.0 | 0.0 | 0.00 | 0.00 | 0.00 | 66 | 1016.1 |
| 20260503044649 | 42 | 175 | 0.0 | 0.0 | 0.00 | 0.00 | 0.00 | 61 | 1016.0 |
| 20260503044146 | 42 | 183 | 0.0 | 0.0 | 0.00 | 0.00 | 0.00 | 59 | 1016.1 |
| 20260503043643 | 42 | 169 | 0.0 | 0.0 | 0.00 | 0.00 | 0.00 | 59 | 1016.0 |
| 20260503043140 | 43 | 129 | 0.0 | 0.0 | 0.00 | 0.00 | 0.00 | 59 | 1016.5 |
| 20260503042636 | 43 | 182 | 0.0 | 0.0 | 0.00 | 0.00 | 0.00 | 56 | 1016.3 |
| 20260503042133 | 44 | 175 | 0.0 | 0.0 | 0.00 | 0.00 | 0.00 | 56 | 1016.1 |
| 20260503041629 | 44 | 174 | 0.0 | 0.0 | 0.00 | 0.00 | 0.00 | 56 | 1016.3 |
| 20260503041127 | 44 | 165 | 0.0 | 0.0 | 0.00 | 0.00 | 0.00 | 55 | 1016.3 |
| 20260503040624 | 44 | 135 | 0.0 | 0.0 | 0.00 | 0.00 | 0.00 | 55 | 1016.3 |
| 20260503040121 | 45 | 135 | 0.0 | 0.0 | 0.00 | 0.00 | 0.00 | 54 | 1016.3 |
| 20260503035617 | 45 | 124 | 0.0 | 0.0 | 0.00 | 0.00 | 0.00 | 55 | 1016.1 |
| 20260503035115 | 45 | 128 | 0.0 | 0.0 | 0.00 | 0.00 | 0.00 | 54 | 1016.0 |
| 20260503034612 | 45 | 124 | 0.0 | 0.0 | 0.00 | 0.00 | 0.00 | 53 | 1016.3 |
| 20260503034110 | 45 | 105 | 0.0 | 0.0 | 0.00 | 0.00 | 0.00 | 53 | 1016.1 |
| 20260503033607 | 46 | 144 | 0.0 | 0.0 | 0.00 | 0.00 | 0.00 | 52 | 1016.1 |
| 20260503033105 | 46 | 137 | 0.0 | 0.0 | 0.00 | 0.00 | 0.00 | 51 | 1015.8 |
| 20260503032603 | 46 | 153 | 0.0 | 0.0 | 0.00 | 0.00 | 0.00 | 51 | 1015.9 |
| 20260503032101 | 46 | 155 | 0.0 | 0.0 | 0.00 | 0.00 | 0.00 | 51 | 1016.0 |
| 20260503031558 | 47 | 147 | 0.0 | 0.0 | 0.00 | 0.00 | 0.00 | 50 | 1015.7 |
| 20260503031056 | 47 | 42 | 0.0 | 0.0 | 0.00 | 0.00 | 0.00 | 49 | 1015.8 |
| 20260503030552 | 47 | 357 | 3.0 | 3.0 | 0.00 | 0.00 | 0.00 | 48 | 1016.0 |
| 20260503030049 | 48 | 175 | 0.0 | 0.0 | 0.00 | 0.00 | 0.00 | 49 | 1015.6 |
| 20260503025545 | 48 | 243 | 0.0 | 0.0 | 0.00 | 0.00 | 0.00 | 50 | 1015.8 |
| 20260503025043 | 48 | 171 | 0.0 | 0.0 | 0.00 | 0.00 | 0.00 | 49 | 1015.8 |
| 20260503024539 | 48 | 295 | 1.0 | 1.0 | 0.00 | 0.00 | 0.00 | 48 | 1015.7 |
| 20260503024036 | 48 | 227 | 0.0 | 0.0 | 0.00 | 0.00 | 0.00 | 47 | 1015.9 |
| 20260503023532 | 48 | 73 | 0.0 | 0.0 | 0.00 | 0.00 | 0.00 | 48 | 1016.0 |
| 20260503023030 | 49 | 78 | 0.0 | 0.0 | 0.00 | 0.00 | 0.00 | 47 | 1015.9 |
| 20260503022526 | 49 | 248 | 0.0 | 0.0 | 0.00 | 0.00 | 0.00 | 46 | 1016.0 |
| 20260503022020 | 49 | 172 | 0.0 | 0.0 | 0.00 | 0.00 | 0.00 | 46 | 1015.8 |
| 20260503021518 | 49 | 168 | 0.0 | 0.0 | 0.00 | 0.00 | 0.00 | 46 | 1015.8 |